{"data":{"norad_id":53760,"intl_designator":"2022-109A","name":"YAOGAN-35 05A","alt_names":[],"object_type":"PAYLOAD","status":"ACTIVE","operator":null,"country":"PRC","launch_date":"2022-09-06","launch_site_code":"XICLF","launch_vehicle":null,"mission":null,"orbit_class":"UNKNOWN","rcs_meters":null,"size_class":null,"mass_kg":null,"dimensions":null,"purposes":[],"wikipedia_slug":null,"has_3d_model":false,"image_url":null,"decayed_at":null,"tle_current":{"epoch":"2026-05-25T05:59:25.130688Z","epoch_age_seconds":49602,"freshness":"FRESH","line1":"1 53760U 22109A   26145.24959642  .00008217  00000+0  34086-3 0  9995","line2":"2 53760  35.0057 123.1845 0004097 116.0382 244.0755 15.23134508207118","mean_motion":15.23134508,"eccentricity":0.0004097,"inclination_deg":35.0057,"raan_deg":123.1845,"arg_perigee_deg":116.0382,"mean_anomaly_deg":244.0755,"bstar":0.00034086,"rev_number":20711,"period_min":94.541880079313,"perigee_km":493.57636904122,"apogee_km":499.20935881172,"semimajor_km":6874.5298639265,"source":"CELESTRAK","updated_at":"2026-05-25T13:37:58.370250Z"}}}